Weather History for Mayport NS, FL

Change the Weather History Date:

Tuesday, June 10, 2014

  Actual Average Record
Temperature  
Mean Temperature 82 °F -  
Max Temperature 89 °F 84 °F 95 °F (1998)
Min Temperature 75 °F 72 °F 69 °F (2008)
Cooling Degree Days 16    
Growing Degree Days 32 (Base 50)    
Moisture  
Dew Point 71 °F    
Average Humidity 72    
Maximum Humidity 87    
Minimum Humidity 58    
Precipitation  
Precipitation 0.00 in - - ()
Sea Level Pressure  
Sea Level Pressure 29.99 in    
Wind  
Wind Speed 7 mph (SSW)    
Max Wind Speed 16 mph    
Max Gust Speed 21 mph    
Visibility 10 miles    
Events      
Averages and records for this station are not official NWS values.
T = Trace of Precipitation, MM = Missing Value Source: NWS Daily Summary

Daily Weather History Graph

Daily Weather History Graph

Search for Another Location

Airport:

Trip Planner

Search our weather history database for the weather conditions in past years. The results will help you decide how hot, cold, wet, or windy it might be!

Date:

Astronomy

Jun. 10, 2014 Rise Set
Actual Time 6:23 AM EDT 8:27 PM EDT
Civil Twilight 5:55 AM EDT 8:54 PM EDT
Nautical Twilight 5:22 AM EDT 9:28 PM EDT
Astronomical Twilight 4:46 AM EDT 10:04 PM EDT
Moon 6:00 PM EDT (6/10) 4:16 AM EDT (6/10)
Length of Visible Light 14h 59m
Length of Day
14h 04m
Waxing Gibbous, 92% of the Moon is Illuminated
Jun 10
Waxing Gibbous
Jun 13
Full
Jun 19
Last Quarter
Jun 27
New
Jul 5
First Quarter

Hourly Weather History & Observations

Time (EDT) Temp. Heat Index Dew Point Humidity Pressure Visibility Wind Dir Wind Speed Gust Speed Precip Events Conditions
12:52 AM 75.9 °F - 68.0 °F 76% 29.99 in 10.0 mi South 4.6 mph - N/A   Mostly Cloudy
1:52 AM 75.9 °F - 69.1 °F 79% 29.99 in 10.0 mi SW 5.8 mph - N/A   Scattered Clouds
2:52 AM 77.0 °F - 70.0 °F 79% 29.98 in 10.0 mi SW 6.9 mph - N/A   Partly Cloudy
3:52 AM 75.9 °F - 70.0 °F 82% 29.97 in 10.0 mi SW 5.8 mph - N/A   Clear
4:52 AM 75.0 °F - 70.0 °F 84% 29.98 in 10.0 mi SW 8.1 mph - N/A   Clear
5:52 AM 75.9 °F - 71.1 °F 85% 29.98 in 10.0 mi West 3.5 mph - N/A   Clear
6:09 AM 75.9 °F - 71.1 °F 85% 29.98 in 10.0 mi SW 4.6 mph - N/A   Scattered Clouds
6:52 AM 75.0 °F - 71.1 °F 87% 29.99 in 10.0 mi SW 3.5 mph - N/A   Scattered Clouds
7:52 AM 78.1 °F - 72.0 °F 81% 30.00 in 10.0 mi SW 4.6 mph - N/A   Scattered Clouds
8:52 AM 82.0 °F 87.4 °F 73.0 °F 74% 30.01 in 10.0 mi Variable 3.5 mph - N/A   Partly Cloudy
9:52 AM 84.9 °F 90.7 °F 72.0 °F 65% 30.01 in 10.0 mi Variable 3.5 mph - N/A   Partly Cloudy
10:52 AM 87.1 °F 95.4 °F 73.9 °F 65% 30.01 in 10.0 mi ENE 8.1 mph - N/A   Partly Cloudy
11:52 AM 84.9 °F 93.3 °F 75.0 °F 72% 30.01 in 10.0 mi East 9.2 mph - N/A   Partly Cloudy
12:52 PM 86.0 °F 93.8 °F 73.9 °F 67% 30.00 in 10.0 mi East 9.2 mph - N/A   Partly Cloudy
1:52 PM 87.1 °F 95.4 °F 73.9 °F 65% 29.99 in 10.0 mi ESE 11.5 mph - N/A   Partly Cloudy
2:52 PM 88.0 °F 96.5 °F 73.9 °F 63% 29.98 in 10.0 mi ESE 13.8 mph - N/A   Partly Cloudy
3:52 PM 88.0 °F 97.5 °F 75.0 °F 65% 29.97 in 10.0 mi SE 15.0 mph - N/A   Partly Cloudy
4:52 PM 87.1 °F 96.3 °F 75.0 °F 67% 29.94 in 10.0 mi SE 13.8 mph - N/A   Scattered Clouds
5:52 PM 82.9 °F 90.2 °F 75.0 °F 77% 29.97 in 10.0 mi South 16.1 mph - N/A   Mostly Cloudy
6:52 PM 82.9 °F 87.5 °F 71.1 °F 67% 29.98 in 10.0 mi SSW 10.4 mph - N/A   Mostly Cloudy
7:52 PM 82.0 °F 84.1 °F 66.0 °F 58% 29.99 in 10.0 mi SSW 12.7 mph - N/A   Mostly Cloudy
8:52 PM 79.0 °F - 63.0 °F 58% 30.00 in 10.0 mi SW 10.4 mph 20.7 mph N/A   Mostly Cloudy
9:52 PM 78.1 °F - 64.9 °F 64% 29.99 in 10.0 mi SW 5.8 mph - N/A   Overcast
10:52 PM 77.0 °F - 66.0 °F 69% 29.99 in 10.0 mi SW 5.8 mph - N/A   Overcast
11:52 PM 75.0 °F - 66.0 °F 73% 29.99 in 10.0 mi South 3.5 mph - N/A   Overcast